ATLAS 5 CENTAUR DEB, 46668

Orbit data source: Space-Track

ATLAS 5 CENTAUR DEB, 46668 is space debris in HEO originally from a launch on Wed, 17 Oct 2018 UTC launched from the Air Force Eastern Test Range (AFETR). Debris objects in space refer to the collection of defunct objects orbiting the Earth. Examples of debris include non-operational satellites, rocket bodies, and fragments generated from explosions, collisions, or faulty payload assembly.

Loading next visibility...
Identifier
46668, 2018-079CW
Orbit
HEO
Last TLE update
5 days ago
Origin
Flag of USUnited Launch Alliance/Lockheed Martin (US)
Manufacturer
ULA Decatur
Mission
Spacecraft
Bus & Motor
Unknown
Mass
Unknown
Launch date (UTC)
2018-10-17 (7 years ago)
Launch vehicle
Unknown
Launch site
Air Force Eastern Test Range (AFETR)
Object type
Payload
Rocket body
Debris
Shape & HBR
Unknown
Radar Cross Section
RCS unknown

Expand to show TLE details & history

TLE from 5 days ago
0 ATLAS 5 CENTAUR DEB
1 46668U 18079CW  25184.28792588 -.00000128  00000-0  00000-0 0  9996
2 46668  12.8694  63.7355 4644318 261.8137  44.7752  1.83686845 31764
Epoch: 2025-07-03T06:54Z
TLE epoch observation values (Epoch: 2025-07-03T06:54:36.796Z)
Latitude
0.00004°
Longitude
38.51645°
Altitude
17,298.206 km
Speed
4.418 km/s
True Right ascension
04h 14m 54s
True Declination
0° 00' 00"
Sunlit
Object was in daylight at epoch
Visualization orbit readout
Latitude
5.52292°
Longitude
-166.89754°
Altitude
19,432.151 km
Speed
4.091 km/s
Apparent Right ascension
14h 28m 57s
Apparent Declination
-2° 58' 47"
Sunlit
Object is in daylight
Visualization observer readout
Local Sidereal Time
02:06:23
Azimuth
350.673° N
Elevation
-52.711°
Doppler factor
1
Orbital elements
Apogee altitude
34,868.134 km
Perigee altitude
8,706.342 km
Semi-major axis
28,165.375 km
Eccentricity
0.46443
Inclination
12.8694°
RAAN
63.7355°
Arg. of periapsis
261.8137°
True anomaly
Unknown
Mean anomaly
44.7752°
Eccentric anomaly
Unknown
Mean motion
0.45917 °/min
Orbital period
784.03 mins
BSTAR
0
Loading maneuver chart data...
Loading SW <> Apogee altitude chart data...

ATLAS 5 CENTAUR DEB Visibility forecast

Observer location: undefined°, undefined°

Span
Click to sort rows by Start time (UTC) header in descending order
Start Az.
Max El. time (UTC)
Max El. Az.
Max El.
End time (UTC)
End Az.
697 mins2025-07-08 16:50:45.160Z229.271° WSW2025-07-08 21:38:45.160Z201.747° SSW39.604°2025-07-09 04:27:45.160Z140.118° SSE
|